欧洲卫星公司-3星 (SES-3)

导读

SES 3是由美国发射的通信卫星,于协调世界时2011年7月15日8时成功发射入轨。该卫星隶属于SES全球卫星运营商,主要承担为北美、欧洲地区提供广播电视传输、宽带互联网接入及固定通信服务的任务,它替代了此前的SES 2卫星,提升了区域通信容量与信号稳定性,是SES地球静止轨道通信网络的重要组成部分。

基本信息
目录编号:
37748
目录名称:
SES 3
国际标识:
2011-035A
轨道中心:
EARTH
卫星名称:
欧洲卫星公司-3星
卫星全名:
欧洲卫星公司-3星 (SES-3)
卫星状态:
在轨 (已飞行5446 天)
发射日期:
2011-07-15 UTC
国别 :
美国 (US)
星等 :
--
轨道信息
数据来源 国际轨道数据 AOE轨道数据
星历时间 2026-06-12T14:26:44+0800
12小时前
查看轨道信息
2026-06-12T19:00:00+0800
7小时前
查看轨道信息
半长轴 42164.42km 42164.42km
偏心率 0.0002339 0.0002296
轨道倾角 1.313° 1.314°
近地点辐角 351.924° 353.211°
升交点赤经 83.137° 83.131°
平近点角 179.218° 246.444°
近地点 35776.42km 35776.602km
远地点 35796.146km 35795.964km
周期 1436.081分钟 1436.081分钟
每日圈数 1.002729 1.002729
详细信息
卫星平台:
Star-2.4
平衡模式:
三轴稳定
覆盖范围:
大西洋
运营商:
欧洲卫星公司
运营商所在国:
卢森堡
制造商(研发单位):
轨道ATK公司
制造商所在国:
美国
使用方式:
暂无
卫星简介
欧洲卫星公司:成立于1985年,总部设在卢森堡。该公司通过运营ASTRA、AMERICOM及 NEW SKIES卫星系统为客户提供电视、广播和多媒体直接到户的信息传送服务,是世界第二大卫星运营商。该卫星仍在工作。
2D轨道图
3D轨道图
轨道高度分析图
轨道倾角分析图
轨道综合分析图
查看轨道综合分析图